Weather in Zagorodnyy

Russia / Republic of Bashkortostan     53°35′13″N   55°54′17″E
temp.,
°C
wind,
m/s
gust,
m/s
humid.,
%
clouds,
%
prec.,
mm/h
press.,
hPa
HPBL,
m
4 march, thu
thu423:00−6sw339498 0.3 100356
02:00−9sw339499 0.0 100356
05:00−10wsw239597 0.1 100489
08:00−8w3894100 0.8 1005360
11:00−9sw369271 0.8 1006286
14:00−6sw6108891 0.0 1005665
17:00−4sw8139195 0.9 1004789
20:00−5ssw91589100 0.3 1003879
5 march, fri
fri523:00−3sw101791100 0.6 1001961
02:000sw91690100 0.2 10001040
05:00−1sw81588100 0.2 1002853
08:00−2sw91493100 0.5 1003838
11:00−2sw81396100 1.3 1003772
14:00−1sw81296100 1.8 1002860
17:00−1sw61197100 3.6 1003727
20:00−4n71194100 1.7 1004423
6 march, sat
sat623:00−6nw2496100 2.1 1008177
02:00−12nnw2291100 0.1 101121
05:00−16nnw119070 0.1 101320
08:00−17ssw118864 0.0 101520
11:00−10ssw238842 0.0 1015188
14:00−7ssw34834 0.0 1014329
17:00−6ssw358626 0.0 1013307
20:00−10ssw3387100 0.0 101341
7 march, sun
sun723:00−11ssw1187100 0.0 101221
02:00−11nw1196100 0.1 101021
05:00−11n2396100 0.3 100962
08:00−15nnw4796100 0.1 1009211
11:00−15nnw4695100 0.2 1010302
14:00−14nw4693100 0.1 1011398
17:00−14nw358996 0.1 1012380
20:00−20sw119816 0.0 101420
8 march, mon
mon823:00−20s349625 0.0 101531
02:00−18s5109389 0.0 1014209
05:00−16s7129295 0.1 1012341
08:00−15s81591100 0.2 1010504
11:00−9s101689100 0.3 1007886
14:00−4sw101590100 0.8 10071219
17:00−3sw71189100 1.1 1008946
20:00−4ssw71392100 0.3 1008663